KD8ZLZ Weather Reports


time (UTC)temp
C
wind
direction
speed
KPH
gust
KPH
rain 1hr
cm
rain 24hr
cm
rain mn
cm
humidity
%
barometer
mb
20260506201034 13 270 8.0 14.5 0.00 0.00 0.00 40 1013.5
20260506200534 13 234 8.0 16.1 0.00 0.00 0.00 39 1013.5
20260506200033 13 264 6.4 11.3 0.00 0.00 0.00 39 1013.5
20260506195535 13 246 8.0 14.5 0.00 0.00 0.00 39 1013.9
20260506195054 13 245 6.4 14.5 0.00 0.00 0.00 40 1013.9
20260506194534 13 307 6.4 12.9 0.00 0.00 0.00 40 1013.8
20260506194033 13 321 8.0 14.5 0.00 0.00 0.00 41 1013.8
20260506193533 13 325 8.0 14.5 0.00 0.00 0.00 41 1013.9
20260506193034 12 0 6.4 14.5 0.00 0.00 0.00 42 1013.8
20260506192554 12 332 6.4 16.1 0.00 0.00 0.00 42 1013.8
20260506192034 12 305 6.4 12.9 0.00 0.00 0.00 43 1013.8
20260506191534 12 261 8.0 12.9 0.00 0.00 0.00 42 1013.7
20260506191033 12 271 8.0 16.1 0.00 0.00 0.00 42 1013.7
20260506190533 12 242 4.8 12.9 0.00 0.00 0.00 40 1013.4
20260506190034 11 326 8.0 12.9 0.00 0.00 0.00 41 1013.4
20260506185533 12 290 8.0 16.1 0.00 0.00 0.00 41 1013.4
20260506185033 13 259 6.4 11.3 0.00 0.00 0.00 42 1013.5
20260506184534 12 234 9.7 14.5 0.00 0.00 0.00 41 1013.5
20260506184054 12 250 6.4 11.3 0.00 0.00 0.00 42 1013.5
20260506183533 11 288 8.0 14.5 0.00 0.00 0.00 41 1013.4
20260506183053 11 304 9.7 16.1 0.00 0.00 0.00 42 1013.4
20260506182534 12 317 4.8 8.0 0.00 0.00 0.00 42 1013.8
20260506182033 12 302 6.4 12.9 0.00 0.00 0.00 43 1013.7
20260506181554 12 302 8.0 16.1 0.00 0.00 0.00 43 1013.7
20260506181033 12 263 6.4 11.3 0.00 0.00 0.00 43 1013.7
20260506180533 12 335 6.4 17.7 0.00 0.00 0.00 42 1013.7
20260506180054 11 304 8.0 14.5 0.00 0.00 0.00 41 1014.1
20260506175533 12 319 8.0 14.5 0.00 0.00 0.00 42 1014.1
20260506175054 11 325 8.0 16.1 0.00 0.00 0.00 42 1014.1
20260506174533 11 303 9.7 19.3 0.00 0.00 0.00 43 1014.1
20260506174114 11 259 9.7 17.7 0.00 0.00 0.00 43 1014.1
20260506173533 11 285 9.7 16.1 0.00 0.00 0.00 43 1013.7
20260506173033 11 306 8.0 16.1 0.00 0.00 0.00 42 1013.7
20260506172554 11 293 9.7 19.3 0.00 0.00 0.00 41 1013.7
20260506172033 11 301 9.7 16.1 0.00 0.00 0.00 41 1013.7
20260506171533 11 299 11.3 17.7 0.00 0.00 0.00 39 1013.7
20260506171055 11 279 9.7 19.3 0.00 0.03 0.00 39 1013.7
20260506170534 11 290 9.7 16.1 0.00 0.03 0.00 41 1013.7
20260506170034 11 300 9.7 16.1 0.00 0.03 0.00 42 1013.7
20260506165535 11 308 9.7 17.7 0.00 0.03 0.00 42 1013.7
20260506165033 11 287 9.7 16.1 0.00 0.03 0.00 43 1013.4
20260506164533 11 316 9.7 19.3 0.00 0.03 0.00 43 1013.4
20260506164034 11 294 9.7 16.1 0.00 0.03 0.00 42 1013.4
20260506163534 11 276 9.7 16.1 0.00 0.03 0.00 43 1013.4
20260506163034 11 282 6.4 12.9 0.00 0.03 0.00 42 1013.4
20260506162533 11 292 9.7 17.7 0.00 0.03 0.00 42 1013.4
20260506162033 11 270 9.7 20.9 0.00 0.03 0.00 42 1013.1
20260506161534 12 298 9.7 19.3 0.00 0.03 0.00 42 1013.1
20260506161033 12 284 8.0 12.9 0.00 0.03 0.00 40 1013.1
20260506160533 12 294 8.0 17.7 0.00 0.03 0.00 41 1013.1
20260506160033 12 278 9.7 16.1 0.00 0.03 0.00 42 1013.1
20260506155533 12 262 9.7 19.3 0.00 0.03 0.00 40 1013.1
20260506155033 12 254 8.0 19.3 0.00 0.03 0.00 41 1013.1
20260506154533 11 264 9.7 17.7 0.00 0.03 0.00 41 1013.1
20260506154033 11 303 11.3 19.3 0.00 0.03 0.00 40 1013.1
20260506153533 12 280 12.9 20.9 0.00 0.03 0.00 40 1012.8
20260506153033 12 262 9.7 19.3 0.00 0.03 0.00 41 1012.8
20260506152533 11 253 9.7 16.1 0.00 0.03 0.00 41 1012.7
20260506152033 11 277 9.7 16.1 0.00 0.03 0.00 40 1012.7
20260506151534 11 266 9.7 17.7 0.00 0.03 0.00 40 1012.7
20260506151033 11 307 9.7 17.7 0.00 0.03 0.00 40 1012.7
20260506150553 11 257 8.0 14.5 0.00 0.03 0.00 41 1012.8
20260506150053 12 302 9.7 16.1 0.00 0.03 0.00 41 1012.8
20260506145535 12 291 8.0 14.5 0.00 0.03 0.00 41 1012.8
20260506145033 12 264 8.0 16.1 0.00 0.03 0.00 41 1012.8
20260506144534 12 271 8.0 16.1 0.00 0.03 0.00 41 1012.8
20260506144033 11 304 8.0 16.1 0.00 0.03 0.00 41 1012.8
20260506143533 11 297 8.0 20.9 0.00 0.03 0.00 41 1012.8
20260506143033 12 322 6.4 9.7 0.00 0.03 0.00 43 1012.8
20260506142553 11 301 6.4 11.3 0.00 0.03 0.00 42 1012.8
20260506142033 11 314 8.0 12.9 0.00 0.03 0.00 42 1012.4
20260506141554 11 309 4.8 11.3 0.00 0.03 0.00 42 1012.4
20260506141034 11 302 8.0 14.5 0.00 0.03 0.00 43 1012.4
20260506140533 11 317 8.0 14.5 0.00 0.03 0.00 42 1012.4
20260506140033 11 287 6.4 16.1 0.00 0.03 0.00 44 1012.1
20260506135533 11 300 6.4 11.3 0.00 0.03 0.00 43 1012.1
20260506135033 11 309 8.0 16.1 0.00 0.03 0.00 43 1012.1
20260506134533 10 299 9.7 16.1 0.00 0.03 0.00 43 1012.1
20260506134033 10 293 8.0 12.9 0.00 0.03 0.00 45 1012.1
20260506133553 11 333 6.4 17.7 0.00 0.03 0.00 47 1012.1
20260506133054 11 281 4.8 8.0 0.00 0.03 0.00 49 1012.1
20260506132533 10 302 6.4 12.9 0.00 0.03 0.00 47 1012.1
20260506132033 10 294 6.4 11.3 0.00 0.03 0.00 48 1012.2
20260506131533 10 292 6.4 11.3 0.00 0.03 0.00 49 1012.2
20260506131033 10 235 4.8 11.3 0.00 0.03 0.00 52 1012.2
20260506130533 10 286 6.4 9.7 0.00 0.03 0.00 52 1011.8
20260506130054 10 290 8.0 11.3 0.00 0.03 0.00 50 1011.8
20260506125614 10 267 6.4 9.7 0.00 0.03 0.00 52 1011.8
20260506125033 10 255 6.4 11.3 0.00 0.03 0.00 53 1011.8
20260506124533 10 292 6.4 9.7 0.00 0.03 0.00 54 1011.4
20260506124034 10 290 4.8 8.0 0.00 0.03 0.00 56 1011.4
20260506123533 9 310 4.8 9.7 0.00 0.03 0.00 56 1011.4
20260506123033 9 318 4.8 8.0 0.00 0.03 0.00 56 1011.4
20260506122533 8 340 4.8 8.0 0.00 0.03 0.00 56 1011.4
20260506122053 8 339 3.2 8.0 0.00 0.03 0.00 56 1011.4
20260506121554 8 291 3.2 6.4 0.00 0.03 0.00 57 1011.4
20260506121034 7 320 3.2 8.0 0.00 0.03 0.00 57 1011.4
20260506120553 8 318 3.2 6.4 0.00 0.03 0.00 57 1011.4
20260506120034 8 315 4.8 11.3 0.00 0.03 0.00 56 1011.1
20260506115533 7 311 4.8 8.0 0.00 0.03 0.00 57 1011.1
20260506115033 7 309 3.2 8.0 0.00 0.03 0.00 57 1011.1
20260506114553 7 313 4.8 9.7 0.00 0.03 0.00 56 1011.1
20260506114053 7 339 4.8 9.7 0.00 0.03 0.00 56 1011.1
20260506113655 7 279 4.8 9.7 0.00 0.03 0.00 56 1010.7
20260506113033 7 264 3.2 8.0 0.00 0.03 0.00 57 1010.7
20260506112533 7 293 3.2 8.0 0.00 0.03 0.00 57 1010.7
20260506112054 7 339 4.8 11.3 0.00 0.03 0.00 57 1010.4
20260506111534 7 298 3.2 6.4 0.00 0.03 0.00 58 1010.4
20260506111033 7 301 3.2 6.4 0.00 0.03 0.00 57 1010.4
20260506110533 7 276 3.2 6.4 0.00 0.03 0.00 57 1010.4
20260506110034 7 283 3.2 4.8 0.00 0.03 0.00 58 1010.4
20260506105553 7 290 3.2 6.4 0.00 0.03 0.00 58 1010.0
20260506105053 7 320 3.2 6.4 0.00 0.03 0.00 57 1010.1
20260506104554 7 268 3.2 4.8 0.00 0.03 0.00 58 1010.1
20260506104033 8 291 3.2 8.0 0.00 0.03 0.00 57 1010.1
20260506103533 8 264 3.2 6.4 0.00 0.03 0.00 58 1010.1
20260506103033 8 277 3.2 8.0 0.00 0.03 0.00 57 1010.1
20260506102533 8 274 3.2 8.0 0.00 0.03 0.00 57 1010.1
20260506102034 8 261 3.2 8.0 0.00 0.03 0.00 57 1010.1
20260506101533 8 285 3.2 6.4 0.00 0.03 0.00 57 1010.1
20260506101033 8 320 3.2 6.4 0.00 0.03 0.00 57 1010.1
20260506100533 8 297 3.2 6.4 0.00 0.03 0.00 57 1010.1
20260506100033 8 259 3.2 6.4 0.00 0.03 0.00 57 1010.1
20260506095533 8 221 1.6 3.2 0.00 0.03 0.00 57 1009.8
20260506095033 8 265 1.6 3.2 0.00 0.03 0.00 56 1009.8
20260506094554 8 263 1.6 4.8 0.00 0.03 0.00 55 1009.8
20260506094033 8 217 1.6 4.8 0.00 0.03 0.00 56 1010.1
20260506093533 8 262 1.6 4.8 0.00 0.03 0.00 56 1009.8
20260506093033 8 306 1.6 4.8 0.00 0.03 0.00 57 1009.8
20260506092533 8 345 1.6 4.8 0.00 0.03 0.00 57 1009.8
20260506092053 8 343 3.2 6.4 0.00 0.03 0.00 56 1009.8
20260506091533 8 280 3.2 6.4 0.00 0.03 0.00 56 1009.4
20260506091033 8 282 3.2 8.0 0.00 0.03 0.00 57 1009.8
20260506090533 8 307 3.2 4.8 0.00 0.03 0.00 57 1009.8
20260506090033 8 334 3.2 6.4 0.00 0.03 0.00 57 1009.8
20260506085533 8 337 1.6 4.8 0.00 0.03 0.00 58 1009.8
20260506085033 8 332 1.6 4.8 0.00 0.03 0.00 57 1009.8
20260506084533 8 280 1.6 3.2 0.00 0.03 0.00 57 1009.8
20260506084033 8 353 3.2 6.4 0.00 0.03 0.00 56 1009.4
20260506083533 8 302 3.2 8.0 0.00 0.03 0.00 55 1009.4
20260506083034 8 296 3.2 6.4 0.00 0.03 0.00 56 1009.4
20260506082533 8 285 3.2 6.4 0.00 0.03 0.00 56 1009.4
20260506082033 8 288 3.2 6.4 0.00 0.03 0.00 57 1009.4
20260506081533 8 296 3.2 8.0 0.00 0.03 0.00 56 1009.4
20260506081033 8 326 4.8 8.0 0.00 0.03 0.00 57 1009.8
20260506080533 8 313 3.2 6.4 0.00 0.03 0.00 59 1009.8
20260506073033 8 211 3.2 3.2 0.00 0.03 0.00 66 1009.4
20260506072553 8 200 1.6 3.2 0.00 0.03 0.00 68 1009.4
20260506072033 8 197 1.6 3.2 0.00 0.03 0.00 70 1009.8
20260506071534 8 206 1.6 3.2 0.00 0.03 0.00 71 1009.7
20260506071033 8 190 1.6 3.2 0.00 0.03 0.00 70 1009.7
20260506070533 8 195 0.0 1.6 0.00 0.03 0.00 71 1009.7
20260506062034 8 201 3.2 4.8 0.00 0.03 0.00 83 1010.1
20260506061533 8 198 1.6 3.2 0.00 0.03 0.00 85 1009.8
20260506061053 8 207 1.6 4.8 0.00 0.03 0.00 85 1009.8
20260506060533 8 204 1.6 3.2 0.00 0.03 0.00 85 1009.8
20260506051033 8 208 3.2 4.8 0.00 0.05 0.00 80 1010.1
20260506050554 8 204 3.2 4.8 0.00 0.08 0.00 80 1010.1
20260506045033 8 198 3.2 3.2 0.00 0.18 0.00 79 1010.1
20260506044533 8 201 3.2 4.8 0.00 0.18 0.00 80 1009.8
20260506044053 8 187 1.6 3.2 0.00 0.18 0.00 80 1009.8
20260506043533 8 198 3.2 4.8 0.00 0.18 0.00 77 1010.2
20260506043054 8 199 3.2 4.8 0.00 0.20 0.00 76 1010.2
20260506042533 8 201 4.8 8.0 0.00 0.23 0.00 76 1010.2
20260506042033 8 203 3.2 6.4 0.00 0.23 0.00 76 1009.8
20260506041533 8 205 3.2 8.0 0.00 0.25 0.00 75 1009.5
20260506041033 8 192 3.2 3.2 0.00 0.25 0.00 75 1009.5
20260506040534 8 198 3.2 4.8 0.00 0.25 0.00 77 1009.5
20260506040053 8 199 3.2 4.8 0.00 0.25 0.00 79 1009.5
20260506035533 8 192 1.6 3.2 0.00 0.51 0.51 80 1009.5
20260506035033 8 190 1.6 3.2 0.00 0.51 0.51 81 1009.9
20260506034553 8 186 1.6 1.6 0.00 0.51 0.51 80 1009.9
20260506034053 8 181 1.6 3.2 0.00 0.51 0.51 79 1009.9
20260506033614 8 170 0.0 0.0 0.00 0.51 0.51 78 1009.9
20260506033033 8 171 0.0 0.0 0.00 0.51 0.51 76 1010.2
20260506032533 8 177 0.0 1.6 0.00 0.51 0.51 76 1010.2
20260506032033 8 179 0.0 1.6 0.00 0.51 0.51 75 1009.9
20260506031533 8 187 1.6 1.6 0.00 0.51 0.51 74 1009.9
20260506031113 8 184 0.0 1.6 0.00 0.51 0.51 72 1009.9
20260506030533 8 189 1.6 3.2 0.00 0.51 0.51 72 1010.3
20260506030033 8 186 1.6 1.6 0.00 0.51 0.51 71 1010.3
20260506025533 8 196 1.6 3.2 0.00 0.51 0.51 69 1009.9
20260506025033 8 192 1.6 3.2 0.00 0.51 0.51 69 1009.9
20260506024533 8 190 1.6 3.2 0.00 0.51 0.51 70 1010.0
20260506024053 8 187 1.6 3.2 0.00 0.51 0.51 75 1010.0
20260506023554 9 200 1.6 3.2 0.00 0.51 0.51 76 1010.0
20260506023033 9 206 1.6 3.2 0.00 0.51 0.51 73 1010.0
20260506022553 9 187 1.6 3.2 0.00 0.51 0.51 68 1010.0
20260506022033 9 182 1.6 3.2 0.00 0.51 0.51 68 1010.0
20260506021534 9 189 1.6 3.2 0.00 0.51 0.51 68 1010.0
20260506021033 9 181 0.0 1.6 0.00 0.51 0.51 70 1010.0
20260506020533 9 184 1.6 3.2 0.00 0.51 0.51 66 1009.6
20260506020053 9 186 1.6 3.2 0.00 0.51 0.51 67 1009.6
20260506015534 10 195 1.6 3.2 0.00 0.51 0.51 63 1009.3
20260506015033 10 198 1.6 3.2 0.00 0.51 0.51 62 1009.3
20260506014533 10 193 1.6 3.2 0.00 0.51 0.51 60 1009.3
20260506014033 10 185 1.6 3.2 0.00 0.51 0.51 61 1009.3
20260506013533 10 189 1.6 1.6 0.00 0.51 0.51 62 1009.3
20260506013033 10 188 1.6 3.2 0.00 0.51 0.51 64 1009.3
20260506012533 10 189 1.6 1.6 0.00 0.51 0.51 63 1009.3
20260506012053 10 194 1.6 3.2 0.00 0.51 0.51 57 1009.3
20260506011553 11 205 1.6 6.4 0.00 0.51 0.51 54 1009.3
20260506011033 11 259 3.2 6.4 0.00 0.51 0.51 52 1009.3
20260506010533 11 284 3.2 8.0 0.00 0.51 0.51 52 1009.3
20260506010033 11 250 3.2 6.4 0.00 0.51 0.51 52 1009.3
20260506005533 11 222 3.2 4.8 0.00 0.51 0.51 52 1009.3
20260506005053 11 255 3.2 6.4 0.00 0.51 0.51 53 1009.3
20260506004533 11 196 1.6 6.4 0.00 0.51 0.51 55 1009.3
20260506004033 11 192 1.6 3.2 0.00 0.51 0.51 54 1009.3
20260506003533 11 201 1.6 3.2 0.00 0.51 0.51 52 1009.3
20260506003033 11 213 1.6 3.2 0.00 0.51 0.51 51 1009.3
20260506002533 11 219 1.6 3.2 0.00 0.51 0.51 51 1009.3
20260506002033 11 226 1.6 3.2 0.00 0.51 0.51 50 1009.3
20260506001634 11 212 1.6 3.2 0.00 0.51 0.51 52 1008.9
20260506001033 12 223 1.6 3.2 0.00 0.51 0.51 50 1008.6
20260506000533 12 284 4.8 8.0 0.00 0.51 0.51 47 1008.6
20260506000033 12 272 3.2 4.8 0.00 0.51 0.51 48 1008.6
20260505235533 12 263 4.8 8.0 0.00 0.51 0.51 47 1008.6
20260505235033 12 268 4.8 9.7 0.00 0.51 0.51 49 1008.6
20260505234533 12 284 4.8 6.4 0.00 0.51 0.51 49 1008.6
20260505234053 12 285 4.8 8.0 0.00 0.51 0.51 48 1008.6
20260505233533 12 283 4.8 8.0 0.00 0.51 0.51 50 1008.6
20260505233033 12 228 3.2 6.4 0.00 0.51 0.51 52 1008.6
20260505232533 12 256 4.8 9.7 0.00 0.51 0.51 51 1008.6
20260505232053 12 281 4.8 8.0 0.00 0.51 0.51 52 1008.6
20260505231533 12 285 4.8 11.3 0.00 0.51 0.51 53 1009.0
20260505231033 12 290 6.4 11.3 0.00 0.51 0.51 52 1009.0
20260505230533 12 274 3.2 6.4 0.00 0.51 0.51 54 1008.7
20260505230032 12 290 4.8 8.0 0.00 0.51 0.51 54 1008.7
20260505225533 12 267 4.8 8.0 0.00 0.51 0.51 54 1008.7
20260505225033 12 269 6.4 9.7 0.00 0.51 0.51 55 1008.7
20260505224534 12 284 6.4 9.7 0.00 0.51 0.51 56 1008.7
20260505224033 12 288 6.4 11.3 0.00 0.51 0.51 58 1008.7
20260505223532 13 273 3.2 8.0 0.00 0.51 0.51 60 1008.7
20260505223053 13 264 3.2 6.4 0.00 0.51 0.51 60 1008.7
20260505222534 13 287 3.2 8.0 0.00 0.51 0.51 61 1008.7
20260505222033 13 287 4.8 8.0 0.00 0.51 0.51 60 1009.1
20260505221553 13 275 4.8 8.0 0.00 0.51 0.51 61 1009.1
20260505221032 13 223 4.8 8.0 0.00 0.51 0.51 61 1008.7
20260505220553 13 264 4.8 8.0 0.00 0.51 0.51 61 1008.7
20260505220033 13 238 4.8 9.7 0.00 0.51 0.51 61 1008.7
20260505215534 13 218 4.8 6.4 0.00 0.51 0.51 62 1008.7
20260505215033 13 281 4.8 9.7 0.00 0.51 0.51 63 1008.7
20260505214533 13 211 3.2 4.8 0.00 0.51 0.51 63 1008.7
20260505214032 12 216 4.8 8.0 0.00 0.51 0.51 64 1008.7
20260505213533 12 224 3.2 6.4 0.00 0.51 0.51 64 1008.7
20260505213033 12 220 3.2 6.4 0.00 0.51 0.51 65 1008.7
20260505212533 12 213 3.2 8.0 0.00 0.51 0.51 64 1008.7
20260505212033 12 205 3.2 6.4 0.00 0.51 0.51 64 1009.1
20260505211533 12 208 3.2 6.4 0.00 0.51 0.51 65 1009.1
20260505211053 12 239 4.8 6.4 0.00 0.51 0.51 63 1009.1
20260505210533 12 242 6.4 11.3 0.00 0.51 0.51 63 1009.1
20260505210033 12 221 4.8 9.7 0.00 0.51 0.51 63 1009.1
20260505205532 12 246 4.8 9.7 0.00 0.51 0.51 63 1009.0
20260505205033 12 228 4.8 8.0 0.00 0.51 0.51 63 1009.0
20260505204533 12 251 6.4 11.3 0.00 0.51 0.51 63 1009.0
20260505204033 12 259 4.8 9.7 0.00 0.51 0.51 63 1009.0
20260505203533 12 218 4.8 12.9 0.00 0.51 0.51 63 1009.4
20260505203052 12 235 4.8 8.0 0.00 0.51 0.51 64 1009.4
20260505202533 12 214 8.0 14.5 0.00 0.51 0.51 63 1009.4
20260505202033 12 216 8.0 12.9 0.00 0.51 0.51 62 1009.4
20260505201534 12 216 6.4 11.3 0.00 0.51 0.51 62 1009.4